This demonstration page uses our WeatherBlox Daily Observations layout. Learn more.

39.92423, -83.80882

Hourly Observations for June 13, 2017

Temp ( °F °C ) Dew Point ( °F °C ) Humidity (%) Winds ( mph kmh ) Pressure ( in mb ) Visibility ( mi km ) Precip ( " mm )
12:58 am 00:58 Partly Cloudy with Thunderstorms 76 24.2 67 19.5 75 75 SSW 9 15 30.03 1017 10 16.0934 0 0
1:13 am 01:13 Mostly Clear with Thunderstorms 77 25 70 21 79 79 WSW 6 9 30.01 1016 10 16.0934 0 0
1:27 am 01:27 Partly Cloudy 75 24 72 22 89 89 WSW 7 11 30.01 1016 10 16.0934 0 0
1:58 am 01:58 Mostly Cloudy 75 23.8 72 22.4 92 92 SW 6 9 30.01 1016 10 16.0934 0 0
2:58 am 02:58 Cloudy 75 23.8 74 23.1 96 96 WSW 3 6 30.01 1016 10 16.0934 0 0
3:58 am 03:58 Mostly Clear 74 23.3 73 23 98 98 SW 6 9 30.01 1016 10 16.0934 0 0
4:58 am 04:58 Clear 74 23.6 74 23.3 98 98 SW 3 6 30.01 1016 10 16.0934 0 0
5:58 am 05:58 Mostly Cloudy 73 22.8 73 22.5 98 98 S 5 7 30.01 1016 10 16.0934 0 0
6:46 am 06:46 Cloudy with Showers 72 22 72 22 100 100 Calm 30.03 1017 3 4.82802 0 0
6:54 am 06:54 Mostly Cloudy with Nearby Thunderstorms 73 23 73 23 100 100 Calm 30.03 1017 7 11.26538 0 0
6:55 am 06:55 Mostly Cloudy with Nearby Thunderstorms 73 23 73 23 100 100 Calm 30.03 1017 7 11.26538 0 0
6:58 am 06:58 Mostly Cloudy with Nearby Thunderstorms 73 23 73 23 100 100 S 3 6 30.03 1017 7 11.26538 0 0.0254
7:18 am 07:18 Mostly Cloudy with Thunderstorms 75 24 75 24 100 100 NW 7 11 30.03 1017 7 11.26538 0 0
7:28 am 07:28 Cloudy with Thunderstorms 75 24 73 23 94 94 N 7 11 30.03 1017 2 3.21868 0 0
7:41 am 07:41 Cloudy with Thunderstorms 73 23 73 23 100 100 VRB 6 9 30.03 1017 3 4.82802 0 0
7:58 am 07:58 Mostly Cloudy with Light Thunderstorms 75 24 73 23 94 94 S 8 13 30.02 1017 7 11.26538 0.51 12.954
8:33 am 08:33 Cloudy with Nearby Thunderstorms 73 23 73 23 100 100 Calm 30.05 1018 10 16.0934 0 0
8:58 am 08:58 Mostly Cloudy 73 23 73 23 100 100 ESE 5 7 30.06 1018 10 16.0934 0 0
9:58 am 09:58 Mostly Cloudy 75 24 75 24 100 100 Calm 30.06 1018 10 16.0934 0 0
10:43 am 10:43 Mostly Cloudy with Nearby Thunderstorms 77 25 75 24 94 94 SE 3 6 30.05 1018 10 16.0934 0 0
10:58 am 10:58 Partly Cloudy with Nearby Thunderstorms 77 25 76 24.6 98 98 SE 5 7 30.04 1017 10 16.0934 0 0
11:16 am 11:16 Mostly Cloudy 77 25 77 25 100 100 SE 6 9 30.03 1017 10 16.0934 0 0
11:58 am 11:58 Mostly Sunny 80 26.8 77 24.8 89 89 SE 9 15 30.02 1017 10 16.0934 0 0
12:58 pm 12:58 Sunny 85 29.4 76 24.5 75 75 ESE 8 13 30.01 1016 10 16.0934 0 0.0254
1:05 pm 13:05 Partly Cloudy with Nearby Thunderstorms 86 30 75 24 70 70 SSE 6 9 30.02 1017 10 16.0934 0 0
1:14 pm 13:14 Partly Cloudy with Thunderstorms 84 29 75 24 74 74 S 8 13 30.02 1017 10 16.0934 0 0
1:26 pm 13:26 Windy with Storms Likely 82 28 73 23 74 74 WSW 23 37 30.03 1017 5 8.0467 0 0
1:30 pm 13:30 Mostly Cloudy with Thunderstorms 81 27 70 21 70 70 W 24 39 30.04 1017 3 4.82802 0 0
1:40 pm 13:40 Cloudy with Thunderstorms 72 22 66 19 83 83 SW 24 39 30 1016 1 1.60934 0 0
1:50 pm 13:50 Cloudy with Heavy Thunderstorms 70 21 70 21 100 100 WSW 18 30 30.05 1018 4 6.43736 0 0
1:57 pm 13:57 Cloudy with Light Thunderstorms 70 21 68 20 94 94 SW 13 20 30.02 1017 5 8.0467 0 0
1:58 pm 13:58 Cloudy with Light Thunderstorms 70 21.3 68 20.1 93 93 SW 12 19 30.03 1017 2.5 4.02335 0.22 5.588
2:11 pm 14:11 Mostly Cloudy with Nearby Thunderstorms 70 21 68 20 94 94 WSW 3 6 30.04 1017 10 16.0934 0 0
2:36 pm 14:36 Mostly Cloudy with Light Rain 72 22 68 20 88 88 SW 3 6 30.05 1018 10 16.0934 0 0
2:58 pm 14:58 Cloudy with Light Rain 71 21.5 69 20.7 95 95 SSW 6 9 30.04 1017 10 16.0934 0.01 0.254
3:58 pm 15:58 Cloudy with Light Rain 71 21.9 71 21.7 99 99 S 5 7 29.99 1016 10 16.0934 0.02 0.508
4:08 pm 16:08 Mostly Cloudy 72 22 72 22 100 100 SSE 7 11 29.97 1015 10 16.0934 0 0
4:58 pm 16:58 Partly Cloudy 74 23.1 72 22.3 95 95 S 7 11 29.99 1016 10 16.0934 0 0.0254
5:58 pm 17:58 Mostly Cloudy 75 24 73 23 94 94 SSW 7 11 29.97 1015 10 16.0934 0 0
6:58 pm 18:58 Sunny 79 25.9 74 23.2 85 85 SSW 3 6 29.98 1015 10 16.0934 0 0.0254
7:58 pm 19:58 Sunny 80 26.4 75 23.8 86 86 SE 3 6 29.98 1015 10 16.0934 0 0.0254
8:58 pm 20:58 Sunny 78 25.3 74 23.6 90 90 Calm 29.99 1016 10 16.0934 0 0.0254
9:32 pm 21:32 Mostly Cloudy 77 25 75 24 94 94 NE 8 13 30.01 1016 10 16.0934 0 0
9:38 pm 21:38 Cloudy 77 25 75 24 94 94 ENE 8 13 30.01 1016 10 16.0934 0 0
9:58 pm 21:58 Cloudy 76 24.3 72 22.4 89 89 ENE 9 15 30.02 1017 10 16.0934 0 0
10:01 pm 22:01 Cloudy 76 24.3 72 22.4 89 89 ENE 9 15 30.02 1017 10 16.0934 0 0
10:08 pm 22:08 Cloudy 75 24 70 21 83 83 E 6 9 30.02 1017 10 16.0934 0 0
10:58 pm 22:58 Clear 73 22.9 67 19.7 82 82 Calm 30.02 1017 10 16.0934 0 0
11:58 pm 23:58 Mostly Cloudy 72 22.1 72 22.1 100 100 SSE 6 9 29.99 1016 9 14.48406 0 0

Powered by AerisWeather